Location: Kalberh�ni
(46.4610°N, 7.2453°E)
Time: 08:09:44
(UTC+00:00)

deb Kosmos-2227 - Pass Details

Date: 19 August 2022
Orbit: 774 x 865 km, 70.9° (Epoch: 26 September)

Event Time Altitude Azimuth Distance (km) Brightness Sun altitude
Rises 20:09:40 0° 341° (NNW) 3,340 ? -15.3°
Reaches altitude 10° 20:13:21 10° 6° (N) 2,426 ? -15.8°
Maximum altitude 20:16:16 14° 38° (NE) 2,150 ? -16.2°
Drops below altitude 10° 20:19:13 10° 70° (ENE) 2,453 ? -16.5°
Enters shadow 20:19:52 - 76° (ENE) 2,585 ? -16.6°
